Regional Weather Roundup
Issued by NWS Jackson, KY

Home | Current Version | Previous Version | Text Only | Print | Product List | Glossary On
Versions: 1 2 3 4 5 6 7 8 9 10 11 12 13 14 15 16 17 18 19 20 21 22 23 24 25 26 27 28 29 30 31 32 33 34 35 36 37 38 39 40 41 42 43 44 45 46 47 48 49 50
000
ASUS43 KJKL 281919
RWRJKL

EAST KENTUCKY HOURLY WEATHER ROUNDUP
NATIONAL WEATHER SERVICE JACKSON KY
200 PM EST FRI NOV 28 2014

NOTE: "FAIR" INDICATES FEW OR NO CLOUDS BELOW 12,000 FEET WITH
NO SIGNIFICANT WEATHER AND/OR OBSTRUCTIONS TO VISIBILITY.

* THESE REPORTS ARE NOT UNDER NWS QUALITY CONTROL AND MAY NOT
  REPORT WEATHER SUCH AS PRECIPITATION AND FOG.

KYZ079-080-083-085-087-088-110-112-115-119-120-282000
...EASTERN KENTUCKY...

CITY           SKY/WX    TMP DP  RH WIND       PRES   REMARKS
JACKSON        MOSUNNY   35  16  45 SW6       30.29F WCI  30
LONDON         PTSUNNY   35  17  47 S7        30.30F WCI  29
SOMERSET*      CLOUDY    36  18  48 SW7       30.31F WCI  30
MONTICELLO*    SUNNY     40  20  45 SW6       30.32F
HARLAN APT*    CLOUDY    34  18  51 E7        30.28F WCI  28
BLACK MTN*       N/A     25  21  86 S6          N/A  WCI  18
PIKEVILLE APT* MOSUNNY   34  18  51 CALM      30.28F
BIG SANDY*     PTCLDY    34  18  53 S7        30.30F WCI  28
MOREHEAD APT*  PTCLDY    34  16  47 S5        30.30F WCI  30
ASHLAND*       SUNNY     36  18  48 SW6       30.29F WCI  31
$$

KYZ035-036-041-042-044-050-067-078-099-282000
...CENTRAL KENTUCKY...

CITY           SKY/WX    TMP DP  RH WIND       PRES   REMARKS
MT STERLING*   MOSUNNY   34  19  55 SW9       30.30F WCI  26
FLEMING/MASON* SUNNY     32  18  55 S10       30.29F WCI  24
DANVILLE*      PTSUNNY   34  19  55 S9        30.30F WCI  26
RICHMOND*      CLOUDY    34  16  47 S7        30.30F WCI  28
LEXINGTON      CLOUDY    33  17  51 S10       30.28F WCI  25
FRANKFORT      CLOUDY    34  18  52 S8        30.27F WCI  27
$$

KYZ091>093-OHZ055-061-077-WVZ005-015-034-035-042-282000
...SOUTHERN OHIO/WEST VIRGINIA...

CITY           SKY/WX    TMP DP  RH WIND       PRES   REMARKS
COVINGTON      PTSUNNY   33  16  49 S9        30.26F WCI  25
COLUMBUS       CLOUDY    30  17  58 SW8       30.28F WCI  22
DAYTON         PTSUNNY   32  19  58 S13       30.24F WCI  22
WILMINGTON     PTSUNNY   33  19  56 S14       30.24F WCI  23
HUNTINGTON     LGT RAIN  34  18  52 S7        30.30F WCI  28
CHARLESTON     CLOUDY    31  18  58 SW6       30.31F WCI  25
PINEVILLE*     CLOUDY    32  24  72 MISG      30.33F
BECKLEY        CLOUDY    27  17  66 W7        30.24S WCI  19
BLUEFIELD      CLOUDY    26  16  65 NW7       30.23F WCI  18
$$

VAZ002-007-008-TNZ017-027-036-066-071-282000
...SOUTHWEST VIRGINIA/EAST TENNESSEE...

CITY           SKY/WX    TMP DP  RH WIND       PRES   REMARKS
WISE*          SUNNY     34  19  55 S5        30.23F WCI  30
JONESVILLE*    CLEAR     36  18  48 CALM      30.33F
ABINGDON*      PTSUNNY   34  22  61 SW8       30.28F WCI  27
BRISTOL        MOSUNNY   35  21  56 S6        30.31F WCI  30
KNOXVILLE      MOSUNNY   39  19  44 CALM      30.33F
OAK RIDGE      SUNNY     41  19  41 SE5       30.34F
CROSSVILLE     SUNNY     42  10  27 VRB6      30.26F
NASHVILLE      SUNNY     45  21  38 SW7       30.30F
$$

...KEY TO REMARKS...
VSB - VISIBILITY IN MILES
WCI - WIND CHILL INDEX
HX  - HEAT INDEX

$$


USA.gov is the U.S. government's official web portal to all federal, state and local government web resources and services.